Погода в Сытой Буде

Россия / Брянская область     52°28′53″N   32°15′06″E
темп.,
°C
ветер,
м/с
пор.,
м/с
влажн.,
%
обл.,
%
осадки,
мм/ч
давл.,
гПа
погр.,
м
13 мая, чт
чт1300:00+8юв2494100 3.8 1014171
03:00+8в3594100 5.3 1012214
06:00+7вюв379426 0.0 1011319
09:00+8юв5792100 0.1 1012522
12:00+12ююв577061 0.2 10111183
15:00+13ююв5767100 0.8 10111344
18:00+12ююв5975100 0.2 1011698
21:00+9юв4108984 0.2 1011184
14 мая, пт
пт1400:00+11юв51376100 0.0 1011376
03:00+11ююв51273100 0.0 1011422
06:00+10юв4128292 0.1 1011384
09:00+15юв7117235 0.1 1010552
12:00+19ююв696312 0.0 10091409
15:00+20ююв686179 0.4 10071619
18:00+19ююв577796 1.4 1006580
21:00+14ю37915 5.4 1006132
15 мая, сб
сб1500:00+12юв479435 0.1 1006110
03:00+11ю71295100 0.4 1006571
06:00+11ююз5109666 0.1 1008472
09:00+14ююз688316 0.1 1008576
12:00+18ююз796359 0.0 10091590
15:00+16ююз687155 0.2 10091156
18:00+16ююз577616 0.6 1009922
21:00+11ююз389526 1.1 1011180
16 мая, вс
вс1600:00+9ююз38975 0.0 1011179
03:00+10ююз369669 0.0 1012149
06:00+9ююз36976 0.0 1013127
09:00+14ююз337910 0.0 1013395
12:00+18ю336513 0.0 10131068
15:00+20ююв2257100 0.0 10121300
18:00+20вюв2467100 0.0 1012366
21:00+14вюв338415 0.0 101131
17 мая, пн
пн1700:00+13в489094 0.0 1010120
03:00+13всв51387100 0.0 1009247
06:00+14всв61590100 1.2 1007467
09:00+16в81486100 1.2 1005574
12:00+22вюв81263100 0.0 10031009
15:00+22юв71266100 0.0 10031555
18:00+21ююв61076100 0.5 1003886
21:00+16ю3695100 1.7 1004155